CAPE
1120 1066 1140 1390 1523 1506 1761 1888 1745 1733 1706 1719 1677 1794 1721 1632 1452 1356 1282 1253 1321 1395 1355 1285 1324 1402 1524 1441 1477 1284 1000 1040 929 816 831 766 781 731 615 582 628 830 801 863 915 893 996 1079 1092 1251 1466 1454 1634 873 467 95 392 177 0 21 132 0
1292 1240 1256 1337 1335 1216 1248 1278 1367 1389 1450 1674 1667 1500 1406 1260 1409 994 1279 1025 1111 1539 1139 1092 1099 1730 1622 1901 1821 1500 1318 1235 1111 1022 953 891 852 765 793 701 650 732 816 812 767 729 596 640 968 1320 1543 1719 1120 460 394 183 417 0 15 0 37 3
1208 1126 1199 1153 1074 1052 1011 951 1076 1286 1483 1722 1635 1398 1145 957 993 1019 1032 997 1082 1074 1019 881 1076 1638 1809 1959 1844 1548 1539 1585 1441 1359 1284 1112 1080 1038 930 904 798 740 832 932 874 625 453 84 55 639 787 647 437 275 342 294 524 0 0 0 0 166
1066 988 1062 986 873 774 792 845 852 889 1198 1395 1339 978 764 879 853 758 855 890 810 1095 778 769 1465 1419 1716 1623 1769 2002 1882 1803 1795 1704 1663 1513 1507 1476 1259 1244 1051 950 974 670 524 144 62 0 0 8 336 285 262 199 337 479 632 0 0 134 2 582
992 952 902 1071 872 790 569 646 642 676 688 715 668 580 502 627 734 890 642 624 548 897 547 482 448 636 788 1234 1552 1511 1436 1635 1726 1613 1742 1501 1302 1096 1053 858 783 621 522 500 311 28 0 0 48 140 270 380 370 307 332 696 656 363 326 162 67 812
675 703 710 800 851 1048 1271 865 693 1206 1365 1209 837 752 620 451 448 599 732 576 884 427 402 378 328 401 546 747 1225 1403 1458 1595 1753 1667 1614 1511 1430 1283 1149 1030 961 841 616 551 109 4 0 114 0 119 234 333 456 496 629 777 822 548 343 250 222 919
559 703 663 962 1334 1644 807 946 895 1193 1414 1492 1235 873 825 811 624 623 467 866 382 317 270 321 398 477 596 749 955 1081 1264 1469 1609 1676 1618 1574 1483 1317 1161 1132 1066 1046 994 744 588 498 216 384 438 268 236 458 560 544 659 883 961 638 422 319 248 918
412 580 744 744 1096 823 858 1058 1171 2043 1783 1868 1698 1056 1088 1024 932 1156 664 555 1149 467 420 368 382 563 481 512 690 976 1114 1434 1486 1390 1415 1460 1387 1319 1252 1194 1165 1131 1092 913 563 453 404 346 376 262 155 292 401 603 717 833 903 647 500 428 335 923
291 570 663 630 842 869 1127 1375 1448 1590 1484 2346 1729 667 722 821 1102 840 757 852 1214 466 411 374 491 576 621 592 556 586 668 947 1319 1489 1425 1369 1503 1484 1438 1354 1239 1138 1057 958 854 635 412 372 354 186 160 170 332 403 515 836 794 595 463 425 427 601
340 441 672 705 882 1044 1335 1229 1306 1408 1486 2416 2094 1171 945 743 768 990 910 830 644 340 312 434 549 443 477 545 501 561 636 776 982 1395 1625 1494 1418 1473 1434 1248 965 505 487 448 408 391 457 349 178 119 84 264 353 464 704 901 809 630 510 454 452 473
314 700 701 762 805 947 1079 1045 1038 1232 1362 1406 1661 1359 1102 642 614 647 764 822 655 784 412 279 405 503 593 553 556 469 454 821 915 1026 995 1162 1120 1053 838 506 427 437 466 488 433 413 481 423 359 117 177 212 358 608 1082 1126 948 750 564 509 485 456
505 604 772 758 790 751 697 649 864 864 1023 1022 1191 1092 823 584 685 574 638 656 597 248 426 232 325 366 477 531 596 484 424 425 478 448 462 587 654 554 417 273 250 310 357 403 478 562 441 441 405 385 245 305 364 448 704 839 983 1166 1036 811 704 667
670 580 584 559 573 588 504 455 384 429 553 1074 722 862 631 488 404 517 613 671 427 309 473 227 282 323 603 443 577 470 432 375 296 483 574 464 481 481 492 526 423 542 575 573 538 518 454 465 436 460 380 398 548 616 585 676 771 769 1068 1120 1016 889
533 599 720 508 499 415 141 46 474 502 908 578 0 476 999 632 817 500 263 59 104 297 54 22 12 0 0 190 329 465 419 347 218 349 538 526 572 440 506 622 549 618 1120 804 494 466 406 343 347 130 414 411 789 855 863 866 768 698 912 1039 960 900
708 625 625 531 428 339 103 1 0 0 0 0 0 0 0 0 0 14 3 51 313 165 56 16 0 0 0 0 0 217 379 340 71 186 259 393 524 449 422 334 695 652 620 561 421 553 369 310 385 385 210 147 421 794 943 806 733 668 843 1004 1033 1047
463 542 520 515 345 100 0 0 0 126 0 0 0 0 0 0 0 0 168 197 202 249 10 1 0 0 0 0 0 0 128 72 59 46 18 92 180 242 200 321 570 779 287 318 351 386 368 332 360 388 267 462 434 375 548 604 513 536 721 815 936 946
138 98 294 337 111 0 0 0 0 0 0 0 0 0 0 0 0 0 0 0 0 174 2 0 0 0 0 0 0 0 0 1 46 15 22 13 14 99 49 202 260 393 288 257 280 322 317 333 316 325 363 296 432 471 551 592 593 640 664 810 911 976
65 103 20 0 0 0 0 0 0 2 723 0 0 0 0 0 0 0 0 0 0 0 149 0 0 0 0 1 0 0 0 11 33 22 37 8 10 10 5 10 17 5 90 40 38 134 244 273 282 400 434 453 497 321 395 366 607 940 843 793 801 810
84 0 0 0 26 18 0 0 0 10 0 0 0 0 0 0 0 0 0 0 0 0 16 0 0 0 6 30 0 0 0 0 17 4 5 1 0 24 18 0 1 8 0 26 49 18 33 96 124 137 236 269 244 220 178 278 651 862 886 898 847 722
0 0 24 0 0 0 1 2 0 10 2 40 0 14 0 0 0 0 0 0 0 0 0 83 9 0 1 47 0 0 0 0 57 16 31 0 16 2 11 0 0 154 2 0 0 0 0 5 25 22 51 15 49 55 38 137 414 717 831 829 709 659
0 70 39 28 0 0 0 0 10 8 221 12 136 0 0 0 0 1 3 3 0 0 0 20 138 1 0 148 0 0 0 0 2 110 18 0 6 30 74 1 7 23 41 0 0 0 0 0 6 18 0 14 90 106 126 157 76 266 376 446 383 308
64 30 19 2 0 20 0 0 0 0 0 90 130 1 0 0 7 18 13 19 18 0 0 0 202 78 42 2 1 0 0 0 0 13 28 0 2 18 0 0 0 0 1 1 6 6 1 0 1 60 102 114 4 30 162 242 210 215 272 284 190 152
0 0 26 82 5 34 25 48 5 0 0 0 0 4 0 106 155 2 0 0 43 0 0 9 10 336 103 21 0 0 1 0 0 62 0 0 0 0 0 0 0 3 6 0 2 28 12 0 77 1 0 9 115 65 125 235 188 144 155 134 98 223
32 0 0 184 69 1 90 86 76 29 0 0 53 342 1 0 0 1 14 0 20 18 6 2 2 60 1 0 0 0 0 0 0 3 0 0 0 0 0 0 0 30 1 12 1 11 40 4 33 1 86 76 178 204 149 185 176 165 64 66 124 195
2 0 0 296 37 122 115 10 12 20 77 0 0 0 0 0 114 525 32 7 23 13 2 0 1 1 83 0 0 0 0 0 0 0 0 124 126 135 126 98 62 76 126 39 23 94 4 55 272 393 0 177 52 184 135 275 173 0 18 135 143 279
60 0 0 5 34 21 163 92 78 156 99 0 0 0 0 0 0 1 29 47 0 0 0 0 0 0 8 31 0 0 0 3 7 208 181 158 152 139 147 155 61 200 194 191 20 2 110 71 271 382 429 325 14 66 354 330 266 137 4 14 141 408
50 129 1 0 21 495 43 17 4 49 146 0 0 0 0 0 0 0 1 54 3 0 0 0 0 0 0 27 0 0 0 2 17 32 224 3 75 156 160 166 172 266 374 246 88 39 38 35 213 290 331 372 441 343 390 445 344 187 198 240 397 455
39 169 61 1 0 385 32 3 0 0 0 0 0 0 72 4 0 34 18 66 0 0 0 0 0 0 0 18 64 0 0 191 180 181 164 15 17 157 183 214 262 316 352 361 290 114 42 4 161 287 419 469 406 374 355 347 392 302 125 253 237 335
88 168 26 28 0 96 154 0 0 0 16 0 0 0 36 312 97 24 0 0 0 0 0 0 0 0 0 1 97 26 1 11 28 87 223 9 9 7 16 238 287 291 258 261 304 247 210 85 188 256 432 464 455 427 384 392 441 422 327 206 219 262
175 0 0 10 10 0 329 80 0 0 0 0 8 4 0 0 0 0 0 0 0 0 0 0 0 0 0 0 0 33 16 36 92 234 279 12 4 3 7 117 258 276 287 302 291 268 261 257 242 219 258 318 355 367 365 361 380 303 327 278 75 46
72 0 0 4 20 0 2 0 0 0 0 0 0 0 0 0 91 60 29 20 0 0 0 0 0 0 0 0 1 117 48 134 135 272 121 36 32 4 2 0 0 116 218 250 264 274 245 252 260 283 246 231 275 280 273 298 319 340 338 317 234 186
8 0 0 0 45 0 23 0 0 0 0 0 0 0 0 0 47 54 28 12 4 1 0 0 0 0 0 0 0 0 91 38 149 49 52 16 11 1 0 0 0 0 0 0 0 163 241 255 220 0 122 155 204 242 269 293 296 357 404 373 321 253
7 0 0 2 32 2 0 0 0 0 0 0 0 0 0 0 0 0 0 1 2 2 0 0 0 0 0 0 0 1 18 111 163 139 103 6 2 0 0 0 0 0 0 0 0 0 0 0 210 221 161 0 8 143 226 260 283 349 374 367 335 342
0 0 0 5 20 0 0 0 0 0 0 0 0 0 0 0 0 0 0 0 0 0 0 0 0 0 0 0 0 25 26 55 59 43 118 57 10 9 2 0 0 0 0 0 0 0 0 0 162 227 33 0 0 0 22 204 288 357 400 405 374 385
0 0 0 1 8 3 0 0 0 0 0 0 0 0 0 0 0 0 0 0 0 0 0 0 0 0 0 0 1 10 52 81 126 68 24 0 0 0 0 0 0 0 0 0 0 0 0 0 0 0 0 0 0 0 0 170 257 337 381 410 414 391
0 0 0 11 0 1 0 0 0 0 1 82 17 0 0 0 0 0 0 0 0 0 0 0 0 0 0 0 0 7 36 43 28 7 2 0 0 0 0 0 0 0 0 0 0 0 0 0 0 0 0 0 0 0 0 97 222 252 310 333 370 370
0 0 0 0 0 0 0 0 0 0 0 0 0 0 0 0 0 0 0 0 0 0 0 0 0 0 0 0 0 0 0 9 20 1 0 0 0 0 0 0 0 0 0 0 0 0 0 0 0 0 0 0 0 0 0 45 188 226 238 259 394 407
Wind_Speed
8 7 6 7 7 7 9 12 10 11 11 12 12 12 12 14 16 16 15 16 17 16 16 15 14 14 13 14 14 15 15 15 15 15 15 15 15 15 15 15 15 14 13 13 13 14 14 14 15 15 15 16 18 20 20 nan 16 15 nan nan 16 nan
8 6 5 7 7 7 7 10 10 9 9 10 12 11 10 9 13 13 12 11 11 12 12 12 11 12 12 12 13 11 11 12 12 12 13 12 13 13 13 14 13 13 13 13 13 15 15 14 14 13 14 15 18 19 20 18 17 nan nan nan nan nan
7 7 7 6 6 5 6 7 9 8 7 7 7 9 8 9 10 11 10 9 10 10 9 9 8 8 9 10 10 9 8 8 8 9 9 9 10 11 11 12 12 12 12 12 14 14 14 nan nan 14 14 14 14 16 17 16 17 nan nan nan nan 14
8 7 6 4 3 4 6 7 6 6 6 8 10 10 9 8 9 10 10 8 9 9 7 8 9 12 12 10 10 11 10 7 6 6 6 6 8 9 9 11 11 11 12 14 14 14 nan nan nan nan 10 10 11 12 16 15 15 nan nan 14 nan 13
8 6 6 6 5 4 5 5 4 5 6 9 11 11 10 9 9 9 9 10 10 8 7 7 7 8 9 9 8 8 9 8 7 6 6 5 4 4 6 8 9 10 10 11 12 nan nan nan nan 9 8 8 9 11 15 14 14 14 13 13 nan 14
7 8 10 8 5 3 5 4 3 5 7 9 11 12 11 10 10 10 9 10 11 9 8 8 8 9 9 8 8 6 6 5 5 5 5 7 6 3 2 4 5 6 8 8 9 nan nan 9 nan 8 7 7 8 11 15 14 13 13 13 14 14 15
11 12 12 8 4 2 1 2 5 6 7 10 12 12 11 11 12 12 10 11 10 10 8 8 7 8 8 7 6 6 5 3 2 2 3 4 6 4 3 2 1 2 5 7 8 8 7 8 8 8 8 8 9 9 12 15 12 13 14 14 13 14
12 11 11 10 6 5 4 3 4 6 9 9 12 12 12 12 13 10 9 9 7 6 5 4 3 4 4 4 5 4 4 3 1 1 1 1 3 3 2 1 1 2 2 5 6 6 6 7 8 9 10 10 10 9 10 13 13 13 14 14 13 11
7 6 9 10 8 6 5 4 5 6 6 8 11 11 11 10 10 9 8 8 6 4 5 4 5 4 3 2 3 3 2 1 2 2 4 3 3 2 2 3 2 1 3 3 3 3 4 4 5 7 8 7 7 8 11 14 13 12 12 11 11 10
3 3 7 8 10 9 9 8 7 6 6 8 9 11 11 9 7 3 2 4 3 4 5 6 5 6 5 4 5 4 4 3 4 3 5 5 5 5 4 6 5 4 3 4 5 3 4 3 3 6 nan 7 5 5 8 12 12 12 11 11 11 10
2 4 5 7 9 10 11 11 11 10 8 9 9 9 9 8 5 3 1 5 5 3 4 6 5 5 4 4 4 5 4 4 3 3 4 4 6 7 6 6 5 4 4 4 4 5 6 5 6 7 7 6 5 8 9 9 12 12 11 10 11 10
3 3 5 6 8 8 9 9 9 9 8 8 7 5 4 3 5 3 3 2 3 2 3 4 4 3 3 3 3 3 4 5 4 4 6 5 6 7 7 7 6 5 5 5 4 6 11 9 8 7 7 6 7 7 7 8 10 12 11 10 11 10
3 4 6 7 7 8 7 7 7 6 7 7 6 4 2 1 1 1 1 2 3 3 3 3 3 4 6 6 5 4 5 6 6 4 7 7 7 8 8 8 7 6 5 7 7 7 9 8 7 7 8 6 9 8 8 9 9 11 11 11 11 11
2 3 3 3 3 4 5 nan 5 6 6 6 nan 2 3 3 5 6 7 nan 5 6 nan nan nan nan nan 8 7 6 6 5 6 7 9 10 9 8 9 10 9 11 9 10 12 12 11 7 6 8 7 7 10 9 10 11 11 9 11 11 12 13
1 1 1 1 1 3 3 nan nan nan nan nan nan nan nan nan nan nan nan nan 8 8 nan nan nan nan nan nan nan 7 7 7 nan 9 10 11 11 11 12 13 13 13 11 12 13 14 12 9 7 7 7 8 10 12 12 11 11 11 11 12 13 13
2 2 2 2 1 nan nan nan nan 1 nan nan nan nan nan nan nan nan 6 5 6 7 nan nan nan nan nan nan nan nan 8 nan nan nan nan nan 12 14 15 18 18 18 19 17 16 14 15 13 12 11 10 12 12 13 13 13 13 12 15 14 11 12
3 nan 3 2 2 nan nan nan nan nan nan nan nan nan nan nan nan nan nan nan nan 5 nan nan nan nan nan nan nan nan nan nan nan nan nan nan nan nan nan 18 18 20 21 21 20 18 16 17 15 14 13 13 13 14 14 13 13 14 15 14 14 13
nan 3 nan nan nan nan nan nan nan nan 8 nan nan nan nan nan nan nan nan nan nan nan 7 nan nan nan nan nan nan nan nan nan nan nan nan nan nan nan nan nan nan nan nan nan nan 23 20 20 21 19 18 15 13 14 14 13 14 14 13 13 15 16
nan nan nan nan nan nan nan nan nan nan nan nan nan nan nan nan nan nan nan nan nan nan nan nan nan nan nan nan nan nan nan nan nan nan nan nan nan nan nan nan nan nan nan nan nan nan nan nan 22 22 21 20 18 18 16 15 15 14 13 18 24 23
nan nan nan nan nan nan nan nan nan nan nan nan nan nan nan nan nan nan nan nan nan nan nan nan nan nan nan nan nan nan nan nan nan nan nan nan nan nan nan nan nan 21 nan nan nan nan nan nan nan nan nan nan nan nan nan 19 18 17 21 23 24 22
nan nan nan nan nan nan nan nan nan nan 7 nan 7 nan nan nan nan nan nan nan nan nan nan nan 12 nan nan 11 nan nan nan nan nan 17 nan nan nan nan nan nan nan nan nan nan nan nan nan nan nan nan nan nan nan 25 27 27 nan 27 28 26 25 25
nan nan nan nan nan nan nan nan nan nan nan nan 10 nan nan nan nan nan nan nan nan nan nan nan 10 nan nan nan nan nan nan nan nan nan nan nan nan nan nan nan nan nan nan nan nan nan nan nan nan nan 21 21 nan nan 26 29 32 31 29 25 25 27
nan nan nan nan nan nan nan nan nan nan nan nan nan nan nan 13 12 nan nan nan nan nan nan nan nan 11 12 nan nan nan nan nan nan nan nan nan nan nan nan nan nan nan nan nan nan nan nan nan nan nan nan nan 25 nan 24 28 28 32 30 27 nan 30
nan nan nan 12 nan nan nan nan nan nan nan nan nan 13 nan nan nan nan nan nan nan nan nan nan nan nan nan nan nan nan nan nan nan nan nan nan nan nan nan nan nan nan nan nan nan nan nan nan nan nan nan nan 25 28 26 27 30 28 nan nan 32 32
nan nan nan 12 nan 10 11 nan nan nan nan nan nan nan nan nan 9 8 nan nan nan nan nan nan nan nan nan nan nan nan nan nan nan nan nan 19 18 17 17 nan nan nan 26 nan nan nan nan nan 27 26 nan 30 nan 30 27 27 31 nan nan 32 33 34
nan nan nan nan nan nan 12 nan nan 12 nan nan nan nan nan nan nan nan nan nan nan nan nan nan nan nan nan nan nan nan nan nan nan 18 19 19 19 18 18 18 nan 20 24 25 nan nan 28 nan 28 29 31 30 nan nan 29 29 33 31 nan nan 33 36
nan 10 nan nan nan 15 nan nan nan nan 11 nan nan nan nan nan nan nan nan nan nan nan nan nan nan nan nan nan nan nan nan nan nan nan 19 nan nan 19 18 18 18 20 21 23 nan nan nan nan 28 30 32 33 35 34 33 35 34 34 34 32 34 34
nan 10 nan nan nan 14 nan nan nan nan nan nan nan nan nan nan nan nan nan nan nan nan nan nan nan nan nan nan nan nan nan 19 20 20 21 nan nan 20 21 20 21 21 22 24 26 29 nan nan 30 29 30 34 36 37 36 37 36 34 34 34 35 37
nan 10 nan nan nan nan 12 nan nan nan nan nan nan nan nan 12 nan nan nan nan nan nan nan nan nan nan nan nan nan nan nan nan nan nan 21 nan nan nan nan 23 22 23 24 25 26 26 29 nan 31 30 31 34 36 37 38 38 38 38 36 36 34 35
8 nan nan nan nan nan 12 nan nan nan nan nan nan nan nan nan nan nan nan nan nan nan nan nan nan nan nan nan nan nan nan nan nan 20 21 nan nan nan nan 23 23 24 25 27 27 28 30 30 31 31 31 31 33 34 37 37 37 38 39 37 nan nan
nan nan nan nan nan nan nan nan nan nan nan nan nan nan nan nan nan nan nan nan nan nan nan nan nan nan nan nan nan 19 nan 20 20 20 20 nan nan nan nan nan nan 25 26 27 28 29 31 31 32 33 33 33 33 32 32 33 32 34 34 35 38 37
nan nan nan nan nan nan nan nan nan nan nan nan nan nan nan nan nan nan nan nan nan nan nan nan nan nan nan nan nan nan nan nan 20 nan nan nan nan nan nan nan nan nan nan nan nan 31 31 33 32 nan 33 32 31 32 34 33 30 31 33 32 35 35
nan nan nan nan nan nan nan nan nan nan nan nan nan nan nan nan nan nan nan nan nan nan nan nan nan nan nan nan nan nan nan 20 19 19 20 nan nan nan nan nan nan nan nan nan nan nan nan nan 33 34 32 nan nan 31 32 30 30 30 30 31 31 32
nan nan nan nan nan nan nan nan nan nan nan nan nan nan nan nan nan nan nan nan nan nan nan nan nan nan nan nan nan nan nan nan nan nan 20 nan nan nan nan nan nan nan nan nan nan nan nan nan 34 34 nan nan nan nan nan 27 27 28 26 27 28 29
nan nan nan nan nan nan nan nan nan nan nan nan nan nan nan nan nan nan nan nan nan nan nan nan nan nan nan nan nan nan nan nan 18 nan nan nan nan nan nan nan nan nan nan nan nan nan nan nan nan nan nan nan nan nan nan 25 25 24 23 23 24 25
nan nan nan nan nan nan nan nan nan nan nan nan nan nan nan nan nan nan nan nan nan nan nan nan nan nan nan nan nan nan nan nan nan nan nan nan nan nan nan nan nan nan nan nan nan nan nan nan nan nan nan nan nan nan nan nan 23 22 22 21 22 23
nan nan nan nan nan nan nan nan nan nan nan nan nan nan nan nan nan nan nan nan nan nan nan nan nan nan nan nan nan nan nan nan nan nan nan nan nan nan nan nan nan nan nan nan nan nan nan nan nan nan nan nan nan nan nan nan 24 24 22 22 23 22
Wind_Direction
286 272 241 225 223 228 235 232 241 269 268 264 255 250 247 241 244 247 242 241 232 227 217 213 210 214 226 230 224 220 220 224 224 223 223 219 217 220 225 233 236 237 234 231 233 231 228 225 226 229 232 234 234 250 257 nan 257 256 nan nan 273 nan
301 293 263 239 238 230 220 239 237 229 234 238 235 231 221 224 235 225 234 230 223 217 210 206 206 202 211 218 211 210 211 212 217 218 219 217 217 216 219 224 228 229 228 227 221 229 229 225 220 225 227 228 240 246 247 241 241 nan nan nan nan nan
304 303 285 260 260 255 249 252 249 252 250 243 226 214 204 226 221 221 219 215 218 208 204 202 192 190 194 188 206 192 187 186 192 199 203 208 212 215 219 219 218 222 225 224 231 230 228 nan nan 216 224 239 243 251 251 243 245 nan nan nan nan 276
308 305 301 291 265 254 253 256 256 244 234 221 199 196 201 208 210 205 206 208 208 208 203 196 192 183 182 190 191 174 151 143 152 161 156 188 199 206 210 220 218 215 230 239 236 236 nan nan nan nan 227 236 247 247 255 248 247 nan nan 261 nan 285
305 326 351 353 322 278 255 249 222 199 209 209 196 191 195 193 190 190 191 201 202 200 197 196 188 182 181 180 183 171 163 170 178 174 145 163 172 195 225 235 234 228 234 238 236 nan nan nan nan 223 222 231 245 248 255 254 254 264 265 263 nan 291
342 4 18 12 351 325 277 233 185 169 200 210 197 192 188 178 178 182 189 195 196 189 191 204 200 182 177 187 187 183 164 171 172 148 144 140 140 150 210 246 247 233 229 238 237 nan nan 239 nan 224 219 224 241 259 262 262 263 268 267 263 264 294
16 14 20 28 45 50 346 151 167 177 215 210 198 189 179 164 166 172 177 179 183 177 191 204 199 184 179 182 187 189 181 182 199 139 125 126 129 131 155 200 276 256 237 242 238 235 231 234 237 236 241 235 240 250 253 263 265 270 267 262 265 298
35 29 39 42 44 51 56 106 153 200 215 201 199 185 174 154 145 155 165 160 162 149 167 194 190 194 172 196 213 215 201 184 225 273 294 353 121 144 157 172 270 336 295 257 251 248 244 227 228 240 237 237 240 240 241 241 254 265 269 266 263 286
50 47 54 62 56 66 88 114 159 182 193 181 188 174 171 155 141 144 153 159 152 155 170 198 216 222 217 210 242 264 291 288 288 305 292 306 306 291 282 281 269 308 345 344 291 263 250 238 240 236 245 242 235 235 239 252 253 262 266 271 273 277
20 28 39 45 46 51 71 92 104 127 151 161 166 164 162 160 153 148 136 191 205 228 220 235 224 239 236 207 207 228 262 301 314 317 302 312 304 296 294 288 294 299 321 328 308 305 260 241 228 228 nan 262 255 237 250 260 262 266 269 274 273 267
316 23 22 38 53 56 65 81 87 96 120 132 135 143 146 143 140 116 174 272 272 255 251 238 228 224 233 224 217 228 222 270 291 297 302 312 295 300 292 292 295 300 296 276 279 276 269 260 250 240 244 257 252 249 251 256 262 260 261 272 276 274
323 25 28 42 53 60 60 62 68 75 89 103 111 110 113 87 86 148 172 193 252 238 235 212 228 240 262 282 275 278 272 273 302 308 310 302 291 288 284 274 272 279 293 286 272 255 258 253 242 246 249 260 262 268 260 257 260 265 264 268 282 283
347 28 42 54 64 66 65 64 66 72 78 71 69 55 30 2 350 57 270 255 236 236 238 244 263 297 312 318 317 306 278 286 292 270 299 293 274 266 263 261 255 262 274 290 292 289 279 270 267 265 258 258 272 278 280 273 264 265 272 275 283 285
352 27 42 68 75 90 94 nan 81 71 82 92 nan 325 287 306 302 303 291 nan 304 296 nan nan nan nan nan 302 298 300 299 288 282 272 284 291 296 296 284 269 261 252 246 264 272 280 285 283 281 271 261 256 265 273 275 276 274 276 271 275 279 282
286 306 260 201 167 126 101 nan nan nan nan nan nan nan nan nan nan nan nan nan 297 290 nan nan nan nan nan nan nan 288 285 290 nan 295 297 297 297 288 277 270 263 256 251 251 257 278 284 291 286 281 280 268 270 266 257 262 266 267 277 272 275 281
284 256 242 231 186 nan nan nan nan 294 nan nan nan nan nan nan nan nan 274 270 272 279 nan nan nan nan nan nan nan nan 281 nan nan nan nan nan 286 276 277 271 269 266 257 251 250 254 279 291 297 288 280 277 272 264 260 260 264 264 262 264 269 273
295 nan 247 221 202 nan nan nan nan nan nan nan nan nan nan nan nan nan nan nan nan 286 nan nan nan nan nan nan nan nan nan nan nan nan nan nan nan nan nan 275 269 269 272 265 260 259 261 272 276 281 278 267 259 262 262 264 265 265 271 282 281 275
nan 284 nan nan nan nan nan nan nan nan 313 nan nan nan nan nan nan nan nan nan nan nan 280 nan nan nan nan nan nan nan nan nan nan nan nan nan nan nan nan nan nan nan nan nan nan 264 263 268 275 277 279 279 275 270 263 265 265 268 269 273 278 267
nan nan nan nan nan nan nan nan nan nan nan nan nan nan nan nan nan nan nan nan nan nan nan nan nan nan nan nan nan nan nan nan nan nan nan nan nan nan nan nan nan nan nan nan nan nan nan nan 272 277 280 282 279 270 267 266 267 270 265 255 252 257
nan nan nan nan nan nan nan nan nan nan nan nan nan nan nan nan nan nan nan nan nan nan nan nan nan nan nan nan nan nan nan nan nan nan nan nan nan nan nan nan nan 263 nan nan nan nan nan nan nan nan nan nan nan nan nan 268 262 262 262 264 262 259
nan nan nan nan nan nan nan nan nan nan 296 nan 315 nan nan nan nan nan nan nan nan nan nan nan 283 nan nan 277 nan nan nan nan nan 265 nan nan nan nan nan nan nan nan nan nan nan nan nan nan nan nan nan nan nan 268 269 263 nan 256 262 262 263 261
nan nan nan nan nan nan nan nan nan nan nan nan 310 nan nan nan nan nan nan nan nan nan nan nan 279 nan nan nan nan nan nan nan nan nan nan nan nan nan nan nan nan nan nan nan nan nan nan nan nan nan 253 248 nan nan 261 261 253 255 262 257 254 257
nan nan nan nan nan nan nan nan nan nan nan nan nan nan nan 304 293 nan nan nan nan nan nan nan nan 277 281 nan nan nan nan nan nan nan nan nan nan nan nan nan nan nan nan nan nan nan nan nan nan nan nan nan 247 nan 244 245 247 250 255 251 nan 251
nan nan nan 290 nan nan nan nan nan nan nan nan nan 286 nan nan nan nan nan nan nan nan nan nan nan nan nan nan nan nan nan nan nan nan nan nan nan nan nan nan nan nan nan nan nan nan nan nan nan nan nan nan 249 252 246 240 244 240 nan nan 244 247
nan nan nan 283 nan 288 276 nan nan nan nan nan nan nan nan nan 286 298 nan nan nan nan nan nan nan nan nan nan nan nan nan nan nan nan nan 285 283 280 276 nan nan nan 262 nan nan nan nan nan 240 244 nan 245 nan 242 246 244 249 nan nan 242 237 242
nan nan nan nan nan nan 261 nan nan 270 nan nan nan nan nan nan nan nan nan nan nan nan nan nan nan nan nan nan nan nan nan nan nan 284 285 289 288 284 279 275 nan 272 266 263 nan nan 254 nan 242 238 243 246 nan nan 251 245 247 244 nan nan 238 239
nan 278 nan nan nan 268 nan nan nan nan 303 nan nan nan nan nan nan nan nan nan nan nan nan nan nan nan nan nan nan nan nan nan nan nan 286 nan nan 283 283 280 277 271 267 266 nan nan nan nan 243 240 239 241 244 243 246 249 248 249 244 235 239 243
nan 273 nan nan nan 276 nan nan nan nan nan nan nan nan nan nan nan nan nan nan nan nan nan nan nan nan nan nan nan nan nan 284 284 283 284 nan nan 280 278 277 279 277 272 266 262 264 nan nan 255 246 240 244 247 245 243 246 249 254 251 249 244 242
nan 268 nan nan nan nan 288 nan nan nan nan nan nan nan nan 295 nan nan nan nan nan nan nan nan nan nan nan nan nan nan nan nan nan nan 281 nan nan nan nan 276 273 272 272 267 264 263 262 nan 252 249 246 244 246 246 245 245 247 250 252 252 247 248
263 nan nan nan nan nan 284 nan nan nan nan nan nan nan nan nan nan nan nan nan nan nan nan nan nan nan nan nan nan nan nan nan nan 280 280 nan nan nan nan 274 274 274 273 270 266 263 262 258 256 250 247 247 247 246 246 246 247 251 251 252 nan nan
nan nan nan nan nan nan nan nan nan nan nan nan nan nan nan nan nan nan nan nan nan nan nan nan nan nan nan nan nan 288 nan 286 284 282 279 nan nan nan nan nan nan 273 271 270 267 263 258 255 254 252 251 250 248 250 252 252 253 253 258 259 258 259
nan nan nan nan nan nan nan nan nan nan nan nan nan nan nan nan nan nan nan nan nan nan nan nan nan nan nan nan nan nan nan nan 284 nan nan nan nan nan nan nan nan nan nan nan nan 264 259 253 250 nan 251 250 251 250 249 252 252 255 259 262 265 268
nan nan nan nan nan nan nan nan nan nan nan nan nan nan nan nan nan nan nan nan nan nan nan nan nan nan nan nan nan nan nan 285 284 283 282 nan nan nan nan nan nan nan nan nan nan nan nan nan 251 249 248 nan nan 248 248 250 253 255 254 258 265 268
nan nan nan nan nan nan nan nan nan nan nan nan nan nan nan nan nan nan nan nan nan nan nan nan nan nan nan nan nan nan nan nan nan nan 283 nan nan nan nan nan nan nan nan nan nan nan nan nan 252 248 nan nan nan nan nan 248 251 254 258 260 262 267
nan nan nan nan nan nan nan nan nan nan nan nan nan nan nan nan nan nan nan nan nan nan nan nan nan nan nan nan nan nan nan nan 281 nan nan nan nan nan nan nan nan nan nan nan nan nan nan nan nan nan nan nan nan nan nan 245 249 251 255 257 263 268
nan nan nan nan nan nan nan nan nan nan nan nan nan nan nan nan nan nan nan nan nan nan nan nan nan nan nan nan nan nan nan nan nan nan nan nan nan nan nan nan nan nan nan nan nan nan nan nan nan nan nan nan nan nan nan nan 244 247 250 255 261 264
nan nan nan nan nan nan nan nan nan nan nan nan nan nan nan nan nan nan nan nan nan nan nan nan nan nan nan nan nan nan nan nan nan nan nan nan nan nan nan nan nan nan nan nan nan nan nan nan nan nan nan nan nan nan nan nan 244 245 250 255 257 264